User: anonymous
Location: Whispering Pines Observatory
(39.4020°N, 104.7430°W)
Time: 04:13:22
(UTC-06:00)
Language:

MOS 1 Rocket - Orbit

View from above orbital plane
View from above orbital plane
View from above satellite
View from above satellite

Ground track
Ground track

The orbit data is extracted from the following two-line orbital elements,

1 17528U 87018B   14242.10591841  .00000184  00000-0  50967-4 0  4527
2 17528 097.4581 303.0598 0152583 261.1487 126.7522 14.50027319451715
Epoch (UTC): 30 August 2014 02:32:31
Eccentricity: 0.0152583
inclination: 97.4581°
perigee height: 617 km
apogee height: 834 km
right ascension of ascending node: 303.0598°
argument of perigee: 261.1487°
revolutions per day: 14.50027319
mean anomaly at epoch: 126.7522°
orbit number at epoch: 45171

The dashed part of the orbit path shows where the satellite is in the earth's shadow,  

DLR